�������l�o���
Date,Time,MP-1(��Sv/h),MP-2(��Sv/h),MP-3(��Sv/h),MP-4(��Sv/h),MP-5(��Sv/h),MP-6(��Sv/h),MP-7(��Sv/h),MP-8(��Sv/h),����,����(m/s),���J
2022/11/22,00:00,0.568,0.816,0.518,1.037,0.721,0.332,0.586,0.554,��,1.2,��
2022/11/22,00:10,0.566,0.817,0.518,1.037,0.721,0.331,0.585,0.553,��쐼,1.5,��
2022/11/22,00:20,0.565,0.816,0.519,1.038,0.723,0.332,0.586,0.553,�쐼,2.0,��
2022/11/22,00:30,0.568,0.815,0.518,1.037,0.721,0.334,0.587,0.553,�쐼,2.0,��
2022/11/22,00:40,0.567,0.814,0.517,1.037,0.721,0.332,0.587,0.554,���쐼,1.9,��
2022/11/22,00:50,0.566,0.814,0.517,1.038,0.721,0.333,0.587,0.554,���쐼,2.2,��
2022/11/22,01:00,0.567,0.817,0.519,1.037,0.720,0.333,0.586,0.555,���쐼,3.7,��
2022/11/22,01:10,0.567,0.817,0.519,1.037,0.721,0.332,0.586,0.554,��,4.5,��
2022/11/22,01:20,0.566,0.816,0.519,1.036,0.721,0.333,0.585,0.553,���k��,3.9,��
2022/11/22,01:30,0.568,0.817,0.519,1.037,0.722,0.333,0.587,0.554,���k��,3.1,��
2022/11/22,01:40,0.566,0.817,0.518,1.039,0.721,0.333,0.587,0.553,��,3.2,��
2022/11/22,01:50,0.567,0.815,0.518,1.036,0.722,0.333,0.587,0.553,��,4.1,��
2022/11/22,02:00,0.567,0.817,0.517,1.037,0.722,0.331,0.586,0.553,��,5.6,��
2022/11/22,02:10,0.567,0.815,0.519,1.037,0.720,0.331,0.586,0.555,��,6.2,��
2022/11/22,02:20,0.566,0.816,0.519,1.037,0.722,0.332,0.587,0.554,��,6.3,��
2022/11/22,02:30,0.568,0.814,0.518,1.036,0.723,0.332,0.586,0.555,��,6.1,��
2022/11/22,02:40,0.566,0.814,0.519,1.035,0.720,0.333,0.588,0.552,��,4.0,��
2022/11/22,02:50,0.567,0.817,0.519,1.036,0.721,0.332,0.587,0.554,���k��,3.2,��
2022/11/22,03:00,0.568,0.816,0.520,1.038,0.721,0.334,0.587,0.554,��,3.0,��
2022/11/22,03:10,0.567,0.814,0.518,1.037,0.720,0.332,0.588,0.554,��,3.8,��
2022/11/22,03:20,0.567,0.817,0.518,1.038,0.720,0.331,0.586,0.552,��,3.6,��
2022/11/22,03:30,0.567,0.816,0.517,1.037,0.721,0.332,0.587,0.553,��,3.2,��
2022/11/22,03:40,0.567,0.815,0.517,1.039,0.723,0.334,0.587,0.553,��,2.6,��
2022/11/22,03:50,0.568,0.814,0.517,1.038,0.722,0.334,0.586,0.554,���k��,2.9,��
2022/11/22,04:00,0.568,0.814,0.518,1.036,0.720,0.333,0.586,0.555,�k��,4.8,��
2022/11/22,04:10,0.567,0.816,0.518,1.037,0.722,0.332,0.587,0.554,�k��,4.4,��
2022/11/22,04:20,0.566,0.817,0.518,1.038,0.723,0.334,0.586,0.555,���k��,5.0,��
2022/11/22,04:30,0.564,0.817,0.517,1.036,0.722,0.333,0.586,0.554,�k��,4.8,��
2022/11/22,04:40,0.566,0.816,0.519,1.037,0.720,0.333,0.587,0.554,�k��,5.0,��
2022/11/22,04:50,0.566,0.815,0.519,1.039,0.721,0.331,0.588,0.555,�k��,3.9,��
2022/11/22,05:00,0.568,0.816,0.517,1.039,0.720,0.332,0.585,0.554,�k�k��,2.3,��
2022/11/22,05:10,0.567,0.818,0.517,1.038,0.721,0.332,0.587,0.553,�k��,2.6,��
2022/11/22,05:20,0.567,0.815,0.519,1.038,0.722,0.331,0.585,0.554,�k��,2.3,��
2022/11/22,05:30,0.566,0.815,0.518,1.039,0.721,0.333,0.588,0.554,�k��,1.7,��
2022/11/22,05:40,0.566,0.815,0.520,1.037,0.721,0.333,0.586,0.553,�k��,1.7,��
2022/11/22,05:50,0.566,0.815,0.518,1.035,0.720,0.332,0.586,0.553,�k��,1.2,��
2022/11/22,06:00,0.565,0.816,0.517,1.038,0.721,0.332,0.587,0.555,�k��,0.6,��
2022/11/22,06:10,0.567,0.817,0.519,1.037,0.722,0.331,0.586,0.553,���k��,1.2,��
2022/11/22,06:20,0.567,0.815,0.519,1.037,0.721,0.333,0.585,0.553,-,CALM,��
2022/11/22,06:30,0.566,0.814,0.518,1.037,0.720,0.332,0.586,0.555,-,CALM,��
2022/11/22,06:40,0.566,0.813,0.518,1.038,0.721,0.333,0.586,0.554,�k,1.1,��
2022/11/22,06:50,0.568,0.814,0.517,1.035,0.721,0.332,0.587,0.554,�k,3.4,��
2022/11/22,07:00,0.566,0.817,0.519,1.038,0.720,0.333,0.587,0.554,�k,3.7,��
2022/11/22,07:10,0.565,0.817,0.519,1.036,0.719,0.334,0.586,0.554,�k,2.8,��
2022/11/22,07:20,0.568,0.817,0.518,1.036,0.720,0.332,0.588,0.554,�k��,4.7,��
2022/11/22,07:30,0.566,0.816,0.518,1.036,0.721,0.331,0.586,0.554,���k��,4.2,��
2022/11/22,07:40,0.567,0.817,0.519,1.038,0.721,0.332,0.588,0.555,���k��,6.0,��
2022/11/22,07:50,0.566,0.816,0.516,1.037,0.721,0.332,0.587,0.555,���k��,6.4,��
2022/11/22,08:00,0.567,0.815,0.517,1.036,0.721,0.334,0.589,0.555,�k��,4.7,��
2022/11/22,08:10,0.565,0.816,0.517,1.039,0.724,0.332,0.588,0.553,�k�k��,3.7,��
2022/11/22,08:20,0.568,0.815,0.518,1.037,0.723,0.332,0.589,0.555,�k�k��,3.8,��
2022/11/22,08:30,0.567,0.814,0.517,1.037,0.722,0.332,0.587,0.554,�k�k��,3.9,��
2022/11/22,08:40,0.566,0.815,0.519,1.035,0.720,0.333,0.588,0.553,�k�k��,2.8,��
2022/11/22,08:50,0.567,0.814,0.519,1.041,0.720,0.332,0.588,0.555,�k,2.2,��
2022/11/22,09:00,0.567,0.812,0.519,1.039,0.721,0.334,0.587,0.554,�k�k��,2.3,��
2022/11/22,09:10,0.569,0.815,0.519,1.038,0.721,0.334,0.585,0.556,�k�k��,3.3,��
2022/11/22,09:20,0.568,0.812,0.520,1.038,0.724,0.333,0.587,0.555,�k,2.3,��
2022/11/22,09:30,0.568,0.814,0.519,1.040,0.723,0.333,0.587,0.556,�k�k��,4.2,��
2022/11/22,09:40,0.567,0.816,0.519,1.043,0.722,0.333,0.588,0.555,�k��,4.9,��
2022/11/22,09:50,0.567,0.815,0.518,1.041,0.725,0.332,0.587,0.554,�k��,5.0,��
2022/11/22,10:00,0.568,0.815,0.520,1.039,0.725,0.333,0.587,0.558,�k��,3.1,��
2022/11/22,10:10,0.568,0.817,0.519,1.042,0.722,0.332,0.587,0.554,�k��,4.8,��
2022/11/22,10:20,0.569,0.815,0.518,1.039,0.722,0.332,0.587,0.553,�k��,6.9,��
2022/11/22,10:30,0.569,0.818,0.518,1.039,0.723,0.331,0.587,0.555,�k�k��,5.9,��
2022/11/22,10:40,0.569,0.817,0.518,1.041,0.724,0.332,0.588,0.555,�k��,5.2,��
2022/11/22,10:50,0.570,0.817,0.519,1.042,0.723,0.332,0.587,0.556,�k�k��,5.0,��
2022/11/22,11:00,0.570,0.817,0.520,1.043,0.722,0.331,0.586,0.556,�k��,6.8,��
2022/11/22,11:10,0.570,0.820,0.520,1.042,0.725,0.330,0.587,0.556,���k��,6.7,��
2022/11/22,11:20,0.572,0.819,0.520,1.042,0.724,0.332,0.588,0.556,���k��,5.8,��
2022/11/22,11:30,0.567,0.817,0.519,1.042,0.725,0.333,0.588,0.557,�k��,5.8,��
2022/11/22,11:40,0.572,0.822,0.520,1.042,0.725,0.332,0.589,0.555,���k��,5.1,��
2022/11/22,11:50,0.570,0.820,0.519,1.043,0.723,0.332,0.588,0.554,�k��,4.8,��
2022/11/22,12:00,0.571,0.821,0.521,1.045,0.726,0.331,0.589,0.553,�k��,5.1,��
2022/11/22,12:10,0.571,0.822,0.521,1.044,0.726,0.331,0.589,0.554,�k��,6.2,��
2022/11/22,12:20,0.571,0.822,0.519,1.043,0.724,0.333,0.590,0.554,�k��,4.1,��
2022/11/22,12:30,0.572,0.822,0.519,1.044,0.725,0.332,0.588,0.553,�k��,5.0,��
2022/11/22,12:40,0.571,0.822,0.521,1.045,0.727,0.332,0.589,0.556,�k��,6.7,��
2022/11/22,12:50,0.571,0.820,0.520,1.044,0.724,0.333,0.589,0.554,�k��,5.8,��
2022/11/22,13:00,0.571,0.820,0.521,1.044,0.728,0.333,0.590,0.554,���k��,4.3,��
2022/11/22,13:10,0.573,0.822,0.522,1.045,0.727,0.331,0.589,0.553,�k�k��,5.6,��
2022/11/22,13:20,0.572,0.821,0.522,1.046,0.725,0.332,0.589,0.555,�k��,6.5,��
2022/11/22,13:30,0.571,0.822,0.521,1.045,0.727,0.331,0.589,0.556,���k��,5.6,��
2022/11/22,13:40,0.572,0.822,0.521,1.047,0.725,0.332,0.590,0.555,�k��,6.4,��
2022/11/22,13:50,0.572,0.820,0.519,1.045,0.727,0.333,0.589,0.555,�k��,5.1,��
2022/11/22,14:00,0.571,0.823,0.521,1.045,0.727,0.333,0.588,0.556,�k��,6.4,��
2022/11/22,14:10,0.570,0.821,0.521,1.047,0.726,0.332,0.589,0.555,�k��,6.0,��
2022/11/22,14:20,0.572,0.823,0.521,1.044,0.728,0.333,0.588,0.555,�k�k��,5.2,��
2022/11/22,14:30,0.573,0.822,0.523,1.044,0.727,0.332,0.588,0.554,�k�k��,6.3,��
2022/11/22,14:40,0.573,0.823,0.522,1.047,0.727,0.332,0.588,0.555,�k��,5.0,��
2022/11/22,14:50,0.572,0.821,0.522,1.045,0.727,0.332,0.589,0.554,�k��,4.0,��
2022/11/22,15:00,0.573,0.823,0.521,1.045,0.726,0.333,0.589,0.555,�k�k��,3.3,��
2022/11/22,15:10,0.572,0.823,0.521,1.046,0.727,0.334,0.589,0.555,�k��,4.5,��
2022/11/22,15:20,0.571,0.822,0.521,1.046,0.727,0.333,0.589,0.554,�k��,4.3,��
2022/11/22,15:30,0.573,0.823,0.519,1.046,0.727,0.335,0.589,0.555,�k�k��,4.6,��
2022/11/22,15:40,0.570,0.826,0.522,1.048,0.727,0.332,0.590,0.555,�k�k��,4.4,��
2022/11/22,15:50,0.571,0.826,0.521,1.044,0.728,0.333,0.588,0.556,�k��,2.8,��
2022/11/22,16:00,0.571,0.826,0.522,1.048,0.728,0.335,0.588,0.557,�k��,2.9,��
2022/11/22,16:10,0.572,0.828,0.523,1.046,0.727,0.334,0.589,0.557,�k�k��,3.9,��
2022/11/22,16:20,0.571,0.827,0.525,1.045,0.729,0.333,0.588,0.558,�k�k��,3.1,��
2022/11/22,16:30,0.573,0.828,0.525,1.046,0.729,0.334,0.589,0.557,�k�k��,2.9,��
2022/11/22,16:40,0.573,0.827,0.523,1.048,0.730,0.334,0.589,0.556,�k�k��,3.9,��
2022/11/22,16:50,0.573,0.826,0.523,1.047,0.729,0.334,0.590,0.557,�k��,3.2,��
2022/11/22,17:00,0.572,0.827,0.523,1.047,0.728,0.333,0.589,0.558,�k�k��,3.4,��
2022/11/22,17:10,0.573,0.827,0.525,1.044,0.730,0.334,0.589,0.558,�k�k��,5.2,��
2022/11/22,17:20,0.571,0.826,0.523,1.044,0.729,0.334,0.590,0.557,�k�k��,4.2,��
2022/11/22,17:30,0.571,0.829,0.523,1.045,0.731,0.333,0.589,0.557,�k,4.3,��
2022/11/22,17:40,0.573,0.827,0.524,1.046,0.730,0.332,0.590,0.555,�k,4.6,��
2022/11/22,17:50,0.574,0.827,0.523,1.046,0.730,0.333,0.590,0.558,�k�k��,3.4,��
2022/11/22,18:00,0.573,0.827,0.522,1.045,0.729,0.333,0.590,0.556,�k��,2.6,��
2022/11/22,18:10,0.572,0.827,0.524,1.047,0.731,0.335,0.589,0.556,�k��,2.8,��
2022/11/22,18:20,0.573,0.826,0.523,1.047,0.730,0.333,0.590,0.557,�k��,3.7,��
2022/11/22,18:30,0.570,0.827,0.523,1.047,0.729,0.334,0.591,0.557,�k��,4.1,��
2022/11/22,18:40,0.572,0.826,0.522,1.047,0.730,0.333,0.588,0.557,�k��,3.4,��
2022/11/22,18:50,0.573,0.826,0.521,1.046,0.729,0.334,0.591,0.556,�k��,4.0,��
2022/11/22,19:00,0.572,0.828,0.524,1.047,0.727,0.333,0.589,0.555,�k�k��,3.7,��
2022/11/22,19:10,0.572,0.827,0.523,1.047,0.731,0.334,0.590,0.556,�k�k��,4.4,��
2022/11/22,19:20,0.572,0.826,0.522,1.046,0.729,0.333,0.589,0.555,�k�k��,4.8,��
2022/11/22,19:30,0.573,0.828,0.523,1.049,0.730,0.333,0.589,0.557,�k�k��,5.0,��
2022/11/22,19:40,0.571,0.827,0.522,1.047,0.730,0.333,0.591,0.556,�k�k��,5.2,��
2022/11/22,19:50,0.573,0.826,0.524,1.048,0.731,0.334,0.589,0.556,�k�k��,5.4,��
2022/11/22,20:00,0.573,0.828,0.524,1.047,0.732,0.334,0.590,0.557,�k�k��,5.2,��
2022/11/22,20:10,0.572,0.826,0.524,1.047,0.730,0.334,0.591,0.555,�k�k��,5.8,��
2022/11/22,20:20,0.571,0.828,0.524,1.049,0.730,0.332,0.590,0.557,�k�k��,6.4,��
2022/11/22,20:30,0.573,0.827,0.523,1.047,0.731,0.334,0.591,0.556,�k�k��,5.8,��
2022/11/22,20:40,0.571,0.826,0.523,1.047,0.732,0.334,0.591,0.556,�k�k��,6.0,��
2022/11/22,20:50,0.570,0.825,0.524,1.046,0.731,0.332,0.590,0.556,�k�k��,6.1,��
2022/11/22,21:00,0.571,0.825,0.524,1.048,0.730,0.333,0.591,0.555,�k�k��,7.2,��
2022/11/22,21:10,0.573,0.828,0.523,1.047,0.730,0.334,0.590,0.555,�k�k��,6.4,��
2022/11/22,21:20,0.572,0.825,0.522,1.047,0.730,0.331,0.590,0.557,�k�k��,6.4,��
2022/11/22,21:30,0.574,0.827,0.523,1.047,0.729,0.333,0.591,0.556,�k�k��,6.7,��
2022/11/22,21:40,0.574,0.827,0.524,1.046,0.729,0.333,0.589,0.554,�k�k��,6.9,��
2022/11/22,21:50,0.572,0.826,0.522,1.050,0.730,0.332,0.589,0.556,�k�k��,7.3,��
2022/11/22,22:00,0.570,0.826,0.525,1.047,0.731,0.332,0.590,0.556,�k�k��,6.2,��
2022/11/22,22:10,0.570,0.826,0.522,1.049,0.731,0.334,0.592,0.554,�k�k��,6.7,��
2022/11/22,22:20,0.571,0.827,0.523,1.047,0.732,0.333,0.589,0.557,�k�k��,6.5,��
2022/11/22,22:30,0.573,0.825,0.523,1.048,0.730,0.334,0.591,0.555,�k�k��,7.0,��
2022/11/22,22:40,0.573,0.827,0.524,1.047,0.730,0.334,0.590,0.555,�k�k��,7.6,��
2022/11/22,22:50,0.571,0.827,0.524,1.046,0.729,0.333,0.591,0.557,�k�k��,6.5,��
2022/11/22,23:00,0.571,0.827,0.522,1.047,0.729,0.334,0.589,0.557,�k�k��,5.4,��
2022/11/22,23:10,0.573,0.826,0.523,1.047,0.729,0.333,0.590,0.556,�k�k��,5.0,��
2022/11/22,23:20,0.571,0.825,0.523,1.046,0.729,0.332,0.590,0.555,�k�k��,6.0,��
2022/11/22,23:30,0.573,0.826,0.523,1.048,0.729,0.332,0.589,0.554,�k�k��,6.0,��
2022/11/22,23:40,0.571,0.828,0.523,1.047,0.731,0.333,0.591,0.556,�k�k��,5.0,��
2022/11/22,23:50,0.570,0.827,0.522,1.048,0.730,0.334,0.592,0.554,�k�k��,6.0,��
